Weather History for Stevens Point, WI

Change the Weather History Date:

Sunday, October 27, 2013

  Actual Average Record
Temperature  
Mean Temperature 38 °F -  
Max Temperature 51 °F 55 °F 76 °F (1989)
Min Temperature 25 °F 36 °F 18 °F (1976)
Degree Days  
Heating Degree Days 27    
Moisture  
Dew Point 27 °F    
Average Humidity 67    
Maximum Humidity 94    
Minimum Humidity 36    
Precipitation  
Precipitation 0.00 in - - ()
Sea Level Pressure  
Sea Level Pressure 29.93 in    
Wind  
Wind Speed 4 mph (WSW)    
Max Wind Speed 17 mph    
Max Gust Speed 21 mph    
Visibility 10 miles    
Events      
Averages and records for this station are not official NWS values.
T = Trace of Precipitation, MM = Missing Value Source: NWS Daily Summary

Daily Weather History Graph

Daily Weather History Graph

Search for Another Location

Airport:

Trip Planner

Search our weather history database for the weather conditions in past years. The results will help you decide how hot, cold, wet, or windy it might be!

Date:

Astronomy

Oct. 27, 2013 Rise Set
Actual Time 7:29 AM CDT 5:53 PM CDT
Civil Twilight 6:59 AM CDT 6:23 PM CDT
Nautical Twilight 6:25 AM CDT 6:58 PM CDT
Astronomical Twilight 5:51 AM CDT 7:31 PM CDT
Moon 12:10 AM CDT (10/27) 2:17 PM CDT (10/27)
Length of Visible Light 11h 24m
Length of Day
10h 24m
Last Quarter, 43% of the Moon is Illuminated
Oct 27
Last Quarter
Nov 3
New
Nov 9
First Quarter
Nov 17
Full
Nov 25
Last Quarter

Hourly Weather History & Observations

Time (CDT) Temp. Windchill Dew Point Humidity Pressure Visibility Wind Dir Wind Speed Gust Speed Precip Events Conditions
12:15 AM 38.3 °F - 29.5 °F 71% 30.01 in 10.0 mi Calm Calm - N/A   Overcast
12:35 AM 38.3 °F 35.9 °F 29.3 °F 70% 30.00 in 10.0 mi West 3.5 mph - N/A   Overcast
12:55 AM 37.8 °F - 29.3 °F 72% 29.99 in 10.0 mi Calm Calm - N/A   Overcast
1:15 AM 37.6 °F - 29.3 °F 72% 29.99 in 10.0 mi Calm Calm - N/A   Overcast
1:35 AM 36.7 °F - 28.9 °F 74% 29.99 in 10.0 mi Calm Calm - N/A   Mostly Cloudy
1:55 AM 35.6 °F - 28.4 °F 75% 29.99 in 10.0 mi Calm Calm - N/A   Scattered Clouds
2:15 AM 34.0 °F - 28.4 °F 80% 29.99 in 10.0 mi Calm Calm - N/A   Clear
2:35 AM 33.1 °F - 27.5 °F 80% 29.99 in 10.0 mi Calm Calm - N/A   Clear
2:55 AM 33.4 °F 30.4 °F 27.5 °F 79% 29.98 in 10.0 mi WSW 3.5 mph - N/A   Clear
3:15 AM 32.5 °F 28.1 °F 27.1 °F 80% 29.98 in 10.0 mi WSW 4.6 mph - N/A   Scattered Clouds
3:35 AM 32.0 °F 28.7 °F 26.6 °F 80% 29.97 in 10.0 mi SW 3.5 mph - N/A   Clear
3:55 AM 31.3 °F 27.9 °F 26.2 °F 82% 29.96 in 10.0 mi SW 3.5 mph - N/A   Clear
4:15 AM 31.3 °F - 26.2 °F 82% 29.96 in 10.0 mi Calm Calm - N/A   Clear
4:35 AM 29.1 °F - 25.5 °F 86% 29.96 in 10.0 mi Calm Calm - N/A   Clear
4:55 AM 27.0 °F - 25.0 °F 92% 29.96 in 10.0 mi Calm Calm - N/A   Clear
5:15 AM 28.2 °F 24.4 °F 25.3 °F 89% 29.96 in 10.0 mi SW 3.5 mph - N/A   Scattered Clouds
5:35 AM 29.5 °F 25.9 °F 26.1 °F 87% 29.96 in 10.0 mi SW 3.5 mph - N/A   Mostly Cloudy
5:55 AM 31.1 °F 27.7 °F 26.2 °F 82% 29.96 in 10.0 mi WSW 3.5 mph - N/A   Overcast
6:15 AM 30.9 °F - 25.7 °F 81% 29.96 in 10.0 mi Calm Calm - N/A   Overcast
6:35 AM 28.0 °F - 24.8 °F 88% 29.96 in 10.0 mi Calm Calm - N/A   Mostly Cloudy
6:55 AM 27.3 °F - 25.0 °F 91% 29.94 in 10.0 mi Calm Calm - N/A   Scattered Clouds
7:15 AM 25.7 °F - 24.3 °F 94% 29.94 in 10.0 mi Calm Calm - N/A   Clear
7:35 AM 25.3 °F 21.1 °F 23.7 °F 94% 29.94 in 10.0 mi SSW 3.5 mph - N/A   Clear
7:55 AM 26.8 °F 21.4 °F 25.0 °F 93% 29.95 in 10.0 mi SSW 4.6 mph - N/A   Clear
8:15 AM 28.6 °F 24.8 °F 25.7 °F 89% 29.95 in 10.0 mi SW 3.5 mph - N/A   Clear
8:35 AM 29.8 °F 24.9 °F 26.6 °F 88% 29.95 in 10.0 mi SW 4.6 mph - N/A   Clear
8:55 AM 31.6 °F 26.0 °F 27.1 °F 83% 29.94 in 10.0 mi SW 5.8 mph - N/A   Clear
9:15 AM 33.1 °F 27.7 °F 27.7 °F 81% 29.95 in 10.0 mi SW 5.8 mph - N/A   Clear
9:35 AM 34.3 °F 28.4 °F 27.7 °F 77% 29.94 in 10.0 mi SW 6.9 mph - N/A   Clear
9:55 AM 36.5 °F 29.7 °F 27.7 °F 70% 29.94 in 10.0 mi SW 9.2 mph - N/A   Clear
10:15 AM 37.0 °F 31.0 °F 27.3 °F 68% 29.94 in 10.0 mi WSW 8.1 mph - N/A   Clear
10:35 AM 38.3 °F 30.9 °F 27.3 °F 65% 29.93 in 10.0 mi SW 11.5 mph - N/A   Clear
10:55 AM 39.2 °F 34.2 °F 27.3 °F 62% 29.93 in 10.0 mi WSW 6.9 mph - N/A   Clear
11:15 AM 41.2 °F 34.1 °F 27.5 °F 58% 29.91 in 10.0 mi SW 12.7 mph - N/A   Clear
11:35 AM 43.2 °F 36.2 °F 27.0 °F 53% 29.91 in 10.0 mi SW 13.8 mph 18.4 mph N/A   Clear
11:55 AM 42.8 °F 37.0 °F 26.6 °F 53% 29.90 in 10.0 mi SW 10.4 mph 20.7 mph N/A   Clear
12:15 PM 44.8 °F 38.0 °F 27.1 °F 50% 29.89 in 10.0 mi SW 15.0 mph - N/A   Clear
12:35 PM 45.5 °F 38.3 °F 26.2 °F 47% 29.88 in 10.0 mi SW 17.3 mph 20.7 mph N/A   Clear
12:55 PM 45.9 °F 39.4 °F 26.8 °F 47% 29.87 in 10.0 mi WSW 15.0 mph 19.6 mph N/A   Clear
1:15 PM 46.8 °F - 27.0 °F 46% 29.86 in 10.0 mi SW 15.0 mph 19.6 mph N/A   Clear
1:35 PM 47.5 °F - 27.0 °F 45% 29.85 in 10.0 mi WSW 11.5 mph 18.4 mph N/A   Clear
1:55 PM 48.6 °F - 27.0 °F 43% 29.84 in 10.0 mi SW 13.8 mph 18.4 mph N/A   Clear
2:15 PM 49.5 °F - 26.8 °F 41% 29.84 in 10.0 mi SSW 12.7 mph 16.1 mph N/A   Clear
2:35 PM 49.8 °F - 26.8 °F 41% 29.83 in 10.0 mi WSW 11.5 mph 17.3 mph N/A   Clear
2:55 PM 50.4 °F - 26.6 °F 40% 29.83 in 10.0 mi SW 11.5 mph - N/A   Clear
3:15 PM 50.9 °F - 26.6 °F 39% 29.82 in 10.0 mi WSW 11.5 mph 20.7 mph N/A   Clear
3:35 PM 50.9 °F - 25.0 °F 36% 29.83 in 10.0 mi SW 12.7 mph - N/A   Clear
3:55 PM 51.4 °F - 26.2 °F 38% 29.83 in 10.0 mi SW 11.5 mph 16.1 mph N/A   Clear
4:15 PM 51.8 °F - 26.6 °F 38% 29.83 in 10.0 mi SW 10.4 mph - N/A   Clear
4:36 PM 51.8 °F - 26.6 °F 38% 29.83 in 10.0 mi SSW 11.5 mph - N/A   Clear
4:57 PM 51.8 °F - 26.6 °F 38% 29.84 in 10.0 mi SW 6.9 mph - N/A   Clear
5:20 PM 50.0 °F - 26.6 °F 40% 29.85 in 10.0 mi SSW 3.5 mph - N/A   Clear
5:35 PM 48.6 °F - 27.5 °F 44% 29.85 in 10.0 mi SW 3.5 mph - N/A   Clear
5:55 PM 45.5 °F - 27.5 °F 49% 29.86 in 10.0 mi Calm Calm - N/A   Clear
6:15 PM 43.7 °F - 28.0 °F 54% 29.87 in 10.0 mi Calm Calm - N/A   Clear
6:35 PM 41.9 °F - 29.5 °F 61% 29.88 in 10.0 mi Calm Calm - N/A   Scattered Clouds
6:55 PM 38.5 °F - 29.3 °F 70% 29.89 in 10.0 mi Calm Calm - N/A   Scattered Clouds
7:15 PM 37.6 °F - 29.5 °F 73% 29.90 in 10.0 mi Calm Calm - N/A   Overcast
7:35 PM 36.9 °F - 29.1 °F 74% 29.91 in 10.0 mi Calm Calm - N/A   Scattered Clouds
7:55 PM 35.6 °F - 29.1 °F 77% 29.93 in 10.0 mi Calm Calm - N/A   Clear
8:15 PM 33.3 °F - 28.0 °F 81% 29.94 in 10.0 mi Calm Calm - N/A   Scattered Clouds
8:35 PM 33.6 °F - 28.6 °F 82% 29.95 in 10.0 mi Calm Calm - N/A   Scattered Clouds
8:55 PM 38.8 °F 35.4 °F 28.2 °F 66% 29.97 in 10.0 mi North 4.6 mph - N/A   Clear
9:15 PM 38.7 °F 33.6 °F 28.4 °F 67% 29.98 in 10.0 mi North 6.9 mph - N/A   Clear
9:35 PM 39.7 °F 34.9 °F 29.3 °F 66% 30.00 in 10.0 mi North 6.9 mph - N/A   Clear
9:55 PM 40.5 °F 33.6 °F 30.2 °F 67% 30.02 in 10.0 mi North 11.5 mph 18.4 mph N/A   Clear
10:15 PM 39.2 °F 31.6 °F 29.7 °F 69% 30.03 in 10.0 mi North 12.7 mph 17.3 mph N/A   Clear
10:35 PM 38.7 °F 31.8 °F 28.8 °F 68% 30.04 in 10.0 mi NNE 10.4 mph - N/A   Clear
10:55 PM 38.3 °F 31.4 °F 28.4 °F 68% 30.05 in 10.0 mi North 10.4 mph - N/A   Clear
11:15 PM 37.8 °F 31.3 °F 28.2 °F 68% 30.06 in 10.0 mi NNE 9.2 mph - N/A   Clear
11:35 PM 37.4 °F 31.4 °F 28.4 °F 70% 30.07 in 10.0 mi NNE 8.1 mph - N/A   Clear
11:55 PM 36.0 °F 30.3 °F 28.0 °F 73% 30.08 in 10.0 mi North 6.9 mph - N/A   Clear